Location: Great Snoring
(52.8667°N, 0.8833°E)
Time: 19:28:16
(UTC+00:00)

ATLAS 3B R/B - Pass Details

Date: 19 May 2025
Orbit: 935 x 1258 km, 63.8° (Epoch: 23 June)

Event Time Altitude Azimuth Distance (km) Brightness Sun altitude
Exits shadow 23:17:18 19° 200° (SSW) 2,481 4.1 -16.7°
Maximum altitude 23:22:48 62° 126° (SE) 1,357 3.0 -16.9°
Drops below altitude 10° 23:30:31 10° 48° (NE) 3,240 5.7 -17.0°
Sets 23:33:23 0° 46° (NE) 4,219 6.4 -17.0°
